CCA1535 ZJSY-VHHH

Flight info

Callsign CCA1535
Flight time 1h 7m
Altitude 31100
Route PORAP MLT SIKOU BIGRO TOMUD ADBIN SIERA
Aircraft A339/H-SADE1E2E3GHIJ1J3J5M1P2RWXY/LB1

Departure

Time 2026-05-06 11:00
Airport Sanya Phoenix International Airport (ZJSY)

Arrival

Time 2026-05-06 12:08
Airport Hong Kong International Airport (VHHH)
Time Latitude Longitude Altitude Speed Heading
2026-05-06 10:36 18.30660 109.40878 113 ft 0 kts 262°
2026-05-06 10:48 18.30660 109.40881 113 ft 2 kts 262°
2026-05-06 10:49 18.30662 109.40897 113 ft 2 kts 262°
2026-05-06 10:49 18.30664 109.40913 113 ft 2 kts 262°
2026-05-06 10:49 18.30666 109.40928 113 ft 2 kts 262°
2026-05-06 10:49 18.30667 109.40938 113 ft 2 kts 257°
2026-05-06 10:50 18.30674 109.40952 113 ft 2 kts 223°
2026-05-06 10:50 18.30687 109.40961 113 ft 2 kts 198°
2026-05-06 10:50 18.30700 109.40963 113 ft 0 kts 174°
2026-05-06 10:50 18.30706 109.40962 113 ft 0 kts 172°
2026-05-06 10:53 18.30705 109.40962 113 ft 0 kts 172°
2026-05-06 10:53 18.30693 109.40964 113 ft 2 kts 172°
2026-05-06 10:53 18.30666 109.40968 113 ft 4 kts 172°
2026-05-06 10:54 18.30626 109.40974 113 ft 6 kts 172°
2026-05-06 10:54 18.30571 109.40981 113 ft 8 kts 172°
2026-05-06 10:54 18.30504 109.40990 112 ft 10 kts 172°
2026-05-06 10:54 18.30463 109.40996 112 ft 2 kts 183°
2026-05-06 10:55 18.30442 109.40977 112 ft 5 kts 238°
2026-05-06 10:55 18.30429 109.40932 112 ft 7 kts 262°
2026-05-06 10:55 18.30420 109.40863 112 ft 11 kts 262°
2026-05-06 10:55 18.30407 109.40768 112 ft 14 kts 262°
2026-05-06 10:56 18.30393 109.40657 112 ft 15 kts 262°
2026-05-06 10:56 18.30377 109.40542 112 ft 16 kts 262°
2026-05-06 10:56 18.30362 109.40424 112 ft 16 kts 262°
2026-05-06 10:56 18.30346 109.40297 112 ft 18 kts 262°
2026-05-06 10:57 18.30327 109.40156 112 ft 20 kts 262°
2026-05-06 10:57 18.30308 109.40008 112 ft 20 kts 262°
2026-05-06 10:57 18.30289 109.39863 112 ft 19 kts 262°
2026-05-06 10:57 18.30272 109.39731 112 ft 11 kts 262°
2026-05-06 10:58 18.30260 109.39684 112 ft 6 kts 242°
2026-05-06 10:58 18.30224 109.39645 112 ft 8 kts 211°
2026-05-06 10:58 18.30162 109.39634 112 ft 9 kts 172°
2026-05-06 10:58 18.30110 109.39642 112 ft 4 kts 169°
2026-05-06 10:59 18.30092 109.39658 112 ft 3 kts 117°
2026-05-06 10:59 18.30093 109.39690 112 ft 5 kts 82°
2026-05-06 10:59 18.30110 109.39814 112 ft 43 kts 82°
2026-05-06 10:59 18.30181 109.40363 112 ft 106 kts 82°
2026-05-06 11:00 18.30308 109.41325 114 ft 158 kts 83°
2026-05-06 11:00 18.30470 109.42526 505 ft 168 kts 83°
2026-05-06 11:00 18.30625 109.43705 1180 ft 161 kts 82°
2026-05-06 11:00 18.30776 109.44842 1874 ft 152 kts 83°
2026-05-06 11:01 18.30920 109.45902 2397 ft 146 kts 83°
2026-05-06 11:01 18.31064 109.46962 2789 ft 147 kts 84°
2026-05-06 11:01 18.31232 109.48035 3167 ft 150 kts 71°
2026-05-06 11:01 18.31908 109.48878 3475 ft 160 kts 37°
2026-05-06 11:02 18.32889 109.49559 3741 ft 174 kts 34°
2026-05-06 11:02 18.33941 109.50273 4015 ft 188 kts 34°
2026-05-06 11:02 18.35083 109.51074 4299 ft 204 kts 35°
2026-05-06 11:02 18.36308 109.51956 4599 ft 221 kts 35°
2026-05-06 11:03 18.37634 109.52927 4935 ft 239 kts 35°
2026-05-06 11:03 18.39056 109.53977 5348 ft 254 kts 35°
2026-05-06 11:03 18.40533 109.55074 5992 ft 259 kts 34°
2026-05-06 11:03 18.42001 109.56165 6669 ft 261 kts 34°
2026-05-06 11:04 18.43487 109.57269 7322 ft 264 kts 34°
2026-05-06 11:04 18.45013 109.58403 7990 ft 267 kts 34°
2026-05-06 11:04 18.46530 109.59532 8626 ft 270 kts 34°
2026-05-06 11:04 18.48079 109.60671 9248 ft 273 kts 32°
2026-05-06 11:05 18.49723 109.61694 9847 ft 276 kts 26°
2026-05-06 11:05 18.51521 109.62603 10207 ft 291 kts 23°
2026-05-06 11:05 18.53417 109.63507 10494 ft 308 kts 22°
2026-05-06 11:05 18.55421 109.64455 10780 ft 324 kts 22°
2026-05-06 11:06 18.57568 109.65474 11061 ft 341 kts 23°
2026-05-06 11:06 18.59761 109.66520 11547 ft 349 kts 23°
2026-05-06 11:06 18.62002 109.67593 12176 ft 352 kts 23°
2026-05-06 11:06 18.64237 109.68665 12808 ft 355 kts 23°
2026-05-06 11:07 18.66494 109.69748 13402 ft 359 kts 23°
2026-05-06 11:07 18.68802 109.70856 14004 ft 362 kts 23°
2026-05-06 11:07 18.71116 109.71966 14616 ft 365 kts 22°
2026-05-06 11:07 18.73465 109.73093 15213 ft 368 kts 23°
2026-05-06 11:08 18.75818 109.74222 15803 ft 371 kts 22°
2026-05-06 11:08 18.77372 109.74967 16184 ft 373 kts 22°
2026-05-06 11:08 18.80570 109.76498 16949 ft 377 kts 22°
2026-05-06 11:08 18.82971 109.77649 17505 ft 381 kts 22°
2026-05-06 11:09 18.85418 109.78822 18068 ft 384 kts 22°
2026-05-06 11:09 18.87887 109.80009 18630 ft 387 kts 22°
2026-05-06 11:09 18.90329 109.81182 19164 ft 390 kts 22°
2026-05-06 11:09 18.92827 109.82384 19689 ft 393 kts 22°
2026-05-06 11:10 18.95325 109.83585 20197 ft 396 kts 22°
2026-05-06 11:10 18.97848 109.84799 20701 ft 399 kts 22°
2026-05-06 11:10 19.00396 109.86026 21195 ft 402 kts 22°
2026-05-06 11:10 19.02952 109.87257 21610 ft 407 kts 22°
2026-05-06 11:11 19.05575 109.88520 21930 ft 414 kts 22°
2026-05-06 11:11 19.08212 109.89791 22348 ft 418 kts 22°
2026-05-06 11:11 19.10890 109.91084 22821 ft 421 kts 22°
2026-05-06 11:11 19.13546 109.92367 23289 ft 423 kts 22°
2026-05-06 11:12 19.16242 109.93668 23755 ft 425 kts 23°
2026-05-06 11:12 19.18976 109.94993 24198 ft 428 kts 23°
2026-05-06 11:12 19.21683 109.96310 24632 ft 431 kts 24°
2026-05-06 11:12 19.24361 109.97774 25059 ft 434 kts 28°
2026-05-06 11:13 19.26967 109.99439 25486 ft 438 kts 32°
2026-05-06 11:13 19.29478 110.01280 25902 ft 441 kts 34°
2026-05-06 11:13 19.31992 110.03200 26308 ft 443 kts 34°
2026-05-06 11:13 19.34533 110.05155 26473 ft 450 kts 34°
2026-05-06 11:14 19.37074 110.07110 26472 ft 451 kts 34°
2026-05-06 11:14 19.39615 110.09064 26471 ft 451 kts 34°
2026-05-06 11:14 19.42168 110.11024 26468 ft 451 kts 34°
2026-05-06 11:14 19.44721 110.12984 26468 ft 451 kts 34°
2026-05-06 11:15 19.47263 110.14934 26465 ft 451 kts 34°
2026-05-06 11:15 19.49806 110.16886 26460 ft 451 kts 34°
2026-05-06 11:15 19.52371 110.18856 26457 ft 451 kts 34°
2026-05-06 11:15 19.54916 110.20811 26456 ft 451 kts 34°
2026-05-06 11:16 19.57453 110.22760 26455 ft 451 kts 34°
2026-05-06 11:16 19.60000 110.24717 26454 ft 451 kts 34°
2026-05-06 11:16 19.62545 110.26673 26452 ft 451 kts 34°
2026-05-06 11:16 19.65121 110.28655 26452 ft 451 kts 34°
2026-05-06 11:17 19.67656 110.30605 26452 ft 451 kts 34°
2026-05-06 11:17 19.70213 110.32574 26452 ft 451 kts 34°
2026-05-06 11:17 19.72758 110.34534 26451 ft 451 kts 34°
2026-05-06 11:17 19.75295 110.36488 26451 ft 451 kts 34°
2026-05-06 11:18 19.77833 110.38444 26450 ft 451 kts 34°
2026-05-06 11:18 19.80399 110.40424 26449 ft 451 kts 34°
2026-05-06 11:18 19.82940 110.42383 26450 ft 451 kts 34°
2026-05-06 11:18 19.85467 110.44334 26450 ft 451 kts 34°
2026-05-06 11:19 19.88042 110.46322 26450 ft 451 kts 34°
2026-05-06 11:19 19.90554 110.48261 26451 ft 451 kts 34°
2026-05-06 11:19 19.93121 110.50245 26450 ft 451 kts 34°
2026-05-06 11:19 19.95644 110.52195 26449 ft 451 kts 34°
2026-05-06 11:20 19.98190 110.54165 26451 ft 451 kts 34°
2026-05-06 11:20 20.00761 110.56155 26552 ft 452 kts 34°
2026-05-06 11:20 20.03319 110.58136 26703 ft 453 kts 34°
2026-05-06 11:20 20.05845 110.60093 26858 ft 454 kts 34°
2026-05-06 11:21 20.08402 110.62073 27055 ft 455 kts 34°
2026-05-06 11:21 20.10994 110.64083 27257 ft 457 kts 34°
2026-05-06 11:21 20.13519 110.66177 27457 ft 459 kts 38°
2026-05-06 11:21 20.15913 110.68430 27655 ft 461 kts 42°
2026-05-06 11:22 20.18167 110.70848 27854 ft 463 kts 46°
2026-05-06 11:22 20.20344 110.73395 28054 ft 464 kts 46°
2026-05-06 11:22 20.22497 110.75960 28254 ft 465 kts 47°
2026-05-06 11:22 20.24651 110.78533 28453 ft 467 kts 47°
2026-05-06 11:23 20.26833 110.81140 28654 ft 468 kts 47°
2026-05-06 11:23 20.29005 110.83732 28860 ft 469 kts 47°
2026-05-06 11:23 20.31179 110.86324 29065 ft 470 kts 46°
2026-05-06 11:23 20.33365 110.88930 29270 ft 472 kts 46°
2026-05-06 11:24 20.35568 110.91556 29476 ft 473 kts 46°
2026-05-06 11:24 20.37746 110.94151 29680 ft 475 kts 46°
2026-05-06 11:24 20.39956 110.96787 29887 ft 476 kts 46°
2026-05-06 11:24 20.42169 110.99426 30093 ft 478 kts 46°
2026-05-06 11:25 20.44407 111.02097 30301 ft 479 kts 46°
2026-05-06 11:25 20.46617 111.04736 30507 ft 481 kts 46°
2026-05-06 11:25 20.48860 111.07416 30717 ft 483 kts 46°
2026-05-06 11:25 20.51108 111.10102 30911 ft 484 kts 46°
2026-05-06 11:26 20.53357 111.12792 30948 ft 485 kts 46°
2026-05-06 11:26 20.57852 111.18173 30955 ft 485 kts 46°
2026-05-06 11:27 20.62337 111.23544 30959 ft 485 kts 46°
2026-05-06 11:27 20.66836 111.28940 30961 ft 485 kts 46°
2026-05-06 11:28 20.71324 111.34330 30964 ft 485 kts 46°
2026-05-06 11:28 20.75819 111.39735 30964 ft 485 kts 46°
2026-05-06 11:29 20.80342 111.45030 30966 ft 483 kts 42°
2026-05-06 11:29 20.85545 111.49620 30970 ft 480 kts 32°
2026-05-06 11:30 20.91344 111.53140 30971 ft 476 kts 22°
2026-05-06 11:30 20.97427 111.55902 30971 ft 475 kts 20°
2026-05-06 11:31 21.03579 111.58626 30971 ft 475 kts 20°
2026-05-06 11:31 21.09681 111.61348 30975 ft 475 kts 20°
2026-05-06 11:32 21.15813 111.64098 30978 ft 475 kts 20°
2026-05-06 11:32 21.21955 111.66856 30979 ft 475 kts 20°
2026-05-06 11:33 21.28060 111.69603 30978 ft 475 kts 20°
2026-05-06 11:33 21.34209 111.72372 30976 ft 475 kts 20°
2026-05-06 11:34 21.40300 111.75118 30978 ft 475 kts 20°
2026-05-06 11:34 21.46433 111.77885 30980 ft 475 kts 20°
2026-05-06 11:35 21.52424 111.81004 30979 ft 480 kts 31°
2026-05-06 11:35 21.57423 111.85821 30982 ft 486 kts 48°
2026-05-06 11:36 21.60912 111.92089 30990 ft 492 kts 64°
2026-05-06 11:36 21.63593 111.98856 30992 ft 492 kts 65°
2026-05-06 11:37 21.66254 112.05640 30991 ft 492 kts 65°
2026-05-06 11:37 21.68934 112.12392 30992 ft 492 kts 65°
2026-05-06 11:38 21.71643 112.19186 30951 ft 492 kts 64°
2026-05-06 11:38 21.72986 112.22555 30832 ft 491 kts 65°
2026-05-06 11:38 21.74296 112.25841 30686 ft 489 kts 64°
2026-05-06 11:38 21.75663 112.29274 30533 ft 488 kts 65°
2026-05-06 11:39 21.76991 112.32610 30385 ft 487 kts 64°
2026-05-06 11:39 21.78324 112.35961 30235 ft 486 kts 64°
2026-05-06 11:39 21.79650 112.39299 30086 ft 485 kts 64°
2026-05-06 11:39 21.80963 112.42605 29938 ft 483 kts 64°
2026-05-06 11:40 21.82291 112.45956 29785 ft 482 kts 64°
2026-05-06 11:40 21.83604 112.49268 29542 ft 480 kts 64°
2026-05-06 11:40 21.84897 112.52533 29295 ft 478 kts 64°
2026-05-06 11:40 21.86210 112.55839 29058 ft 476 kts 64°
2026-05-06 11:41 21.87523 112.59093 29000 ft 475 kts 64°
2026-05-06 11:41 21.90178 112.65633 29005 ft 475 kts 64°
2026-05-06 11:42 21.92823 112.72185 29002 ft 475 kts 64°
2026-05-06 11:42 21.95412 112.78710 29001 ft 476 kts 68°
2026-05-06 11:43 21.96908 112.85696 29001 ft 480 kts 83°
2026-05-06 11:43 21.97161 112.92843 29000 ft 481 kts 88°
2026-05-06 11:44 21.97355 113.03622 28906 ft 471 kts 87°
2026-05-06 11:44 21.97432 113.07117 28421 ft 468 kts 87°
2026-05-06 11:44 21.97513 113.10619 27903 ft 466 kts 87°
2026-05-06 11:45 21.97595 113.14123 27383 ft 465 kts 88°
2026-05-06 11:45 21.97677 113.17603 26863 ft 463 kts 88°
2026-05-06 11:45 21.97758 113.21059 26357 ft 461 kts 88°
2026-05-06 11:45 21.97836 113.24489 25893 ft 458 kts 88°
2026-05-06 11:46 21.97912 113.27860 25431 ft 455 kts 88°
2026-05-06 11:46 21.97990 113.31301 24959 ft 452 kts 88°
2026-05-06 11:46 21.98064 113.34660 24496 ft 450 kts 88°
2026-05-06 11:46 21.98137 113.38005 24034 ft 447 kts 89°
2026-05-06 11:47 21.98211 113.41369 23569 ft 445 kts 89°
2026-05-06 11:47 21.98165 113.44662 23107 ft 442 kts 99°
2026-05-06 11:47 21.97230 113.47739 22641 ft 435 kts 121°
2026-05-06 11:47 21.95329 113.50195 22191 ft 424 kts 144°
2026-05-06 11:48 21.92757 113.51668 21740 ft 413 kts 167°
2026-05-06 11:48 21.89967 113.51949 21290 ft 401 kts 189°
2026-05-06 11:48 21.87330 113.51038 20842 ft 392 kts 211°
2026-05-06 11:48 21.85059 113.49497 20416 ft 388 kts 215°
2026-05-06 11:49 21.82758 113.47933 19965 ft 388 kts 213°
2026-05-06 11:49 21.80396 113.46506 19518 ft 387 kts 210°
2026-05-06 11:49 21.77995 113.45200 19074 ft 386 kts 208°
2026-05-06 11:49 21.75561 113.43955 18625 ft 385 kts 207°
2026-05-06 11:50 21.73141 113.42750 18184 ft 383 kts 206°
2026-05-06 11:50 21.70597 113.41762 17710 ft 385 kts 191°
2026-05-06 11:50 21.67914 113.41873 17261 ft 390 kts 167°
2026-05-06 11:50 21.65499 113.43140 16826 ft 394 kts 143°
2026-05-06 11:51 21.63695 113.45347 16396 ft 395 kts 124°
2026-05-06 11:51 21.62155 113.47800 15957 ft 394 kts 127°
2026-05-06 11:51 21.60442 113.50108 15515 ft 392 kts 132°
2026-05-06 11:51 21.58606 113.52261 15069 ft 390 kts 135°
2026-05-06 11:52 21.56729 113.54321 14630 ft 389 kts 135°
2026-05-06 11:52 21.55093 113.56622 14162 ft 390 kts 116°
2026-05-06 11:52 21.54429 113.59431 13709 ft 389 kts 91°
2026-05-06 11:52 21.54888 113.62254 13262 ft 386 kts 66°
2026-05-06 11:53 21.56390 113.64589 12932 ft 375 kts 39°
2026-05-06 11:53 21.58576 113.65950 12893 ft 355 kts 18°
2026-05-06 11:53 21.60840 113.66946 12897 ft 350 kts 27°
2026-05-06 11:53 21.62849 113.68445 12902 ft 353 kts 38°
2026-05-06 11:54 21.64680 113.70210 12906 ft 354 kts 42°
2026-05-06 11:54 21.66494 113.72025 12805 ft 355 kts 41°
2026-05-06 11:54 21.68301 113.73811 12457 ft 354 kts 41°
2026-05-06 11:54 21.70117 113.75596 12104 ft 352 kts 40°
2026-05-06 11:55 21.71926 113.77368 11749 ft 350 kts 40°
2026-05-06 11:55 21.73743 113.79146 11392 ft 348 kts 40°
2026-05-06 11:55 21.75546 113.80907 11042 ft 347 kts 40°
2026-05-06 11:55 21.77312 113.82635 10898 ft 338 kts 40°
2026-05-06 11:56 21.79014 113.84302 10895 ft 325 kts 40°
2026-05-06 11:56 21.80645 113.85901 10891 ft 312 kts 40°
2026-05-06 11:56 21.82242 113.87466 10888 ft 300 kts 40°
2026-05-06 11:56 21.83798 113.88907 10812 ft 290 kts 30°
2026-05-06 11:57 21.85653 113.89592 10568 ft 280 kts 359°
2026-05-06 11:57 21.87548 113.89236 10336 ft 272 kts 334°
2026-05-06 11:57 21.89227 113.88393 10110 ft 269 kts 332°
2026-05-06 11:57 21.90904 113.87519 9826 ft 271 kts 332°
2026-05-06 11:58 21.92638 113.86623 9131 ft 281 kts 332°
2026-05-06 11:58 21.94398 113.85727 8500 ft 282 kts 332°
2026-05-06 11:58 21.96170 113.84834 7905 ft 282 kts 333°
2026-05-06 11:58 21.97949 113.83945 7330 ft 281 kts 333°
2026-05-06 11:59 21.99705 113.83068 6768 ft 279 kts 333°
2026-05-06 11:59 22.01468 113.82189 6204 ft 278 kts 334°
2026-05-06 11:59 22.03203 113.81324 5663 ft 277 kts 334°
2026-05-06 11:59 22.04956 113.80450 5155 ft 274 kts 334°
2026-05-06 12:00 22.06675 113.79594 4644 ft 272 kts 334°
2026-05-06 12:00 22.08385 113.78741 4137 ft 270 kts 335°
2026-05-06 12:00 22.10062 113.77904 3640 ft 269 kts 335°
2026-05-06 12:00 22.11779 113.77048 3126 ft 267 kts 335°
2026-05-06 12:01 22.13454 113.76211 2653 ft 265 kts 336°
2026-05-06 12:01 22.15088 113.75395 2231 ft 262 kts 336°
2026-05-06 12:01 22.16718 113.74581 2007 ft 255 kts 337°
2026-05-06 12:01 22.18303 113.73790 1969 ft 241 kts 337°
2026-05-06 12:02 22.19784 113.73053 1980 ft 231 kts 337°
2026-05-06 12:02 22.21229 113.72333 1974 ft 222 kts 337°
2026-05-06 12:02 22.22604 113.71669 1967 ft 211 kts 345°
2026-05-06 12:02 22.23974 113.71679 1941 ft 191 kts 31°
2026-05-06 12:03 22.24965 113.72495 1980 ft 167 kts 47°
2026-05-06 12:03 22.25770 113.73307 1970 ft 153 kts 47°
2026-05-06 12:03 22.26534 113.74070 1958 ft 144 kts 47°
2026-05-06 12:03 22.27274 113.74799 1968 ft 143 kts 51°
2026-05-06 12:04 22.27863 113.75654 1976 ft 140 kts 64°
2026-05-06 12:04 22.28304 113.76596 1980 ft 140 kts 70°
2026-05-06 12:04 22.28690 113.77564 1976 ft 140 kts 71°
2026-05-06 12:04 22.29039 113.78538 1827 ft 139 kts 73°
2026-05-06 12:05 22.29368 113.79529 1646 ft 138 kts 74°
2026-05-06 12:05 22.29680 113.80499 1471 ft 138 kts 74°
2026-05-06 12:05 22.29992 113.81478 1296 ft 137 kts 74°
2026-05-06 12:05 22.30305 113.82452 1121 ft 137 kts 73°
2026-05-06 12:06 22.30617 113.83427 947 ft 137 kts 73°
2026-05-06 12:06 22.30932 113.84403 770 ft 137 kts 73°
2026-05-06 12:06 22.31243 113.85371 596 ft 137 kts 73°
2026-05-06 12:06 22.31554 113.86337 420 ft 136 kts 73°
2026-05-06 12:07 22.31866 113.87308 246 ft 136 kts 72°
2026-05-06 12:07 22.32174 113.88267 78 ft 134 kts 72°
2026-05-06 12:07 22.32476 113.89201 43 ft 120 kts 71°
2026-05-06 12:07 22.32692 113.89874 43 ft 68 kts 71°
2026-05-06 12:08 22.32786 113.90168 43 ft 18 kts 71°
2026-05-06 12:08 22.32821 113.90303 43 ft 18 kts 79°
2026-05-06 12:08 22.32820 113.90442 43 ft 18 kts 102°
2026-05-06 12:08 22.32795 113.90576 43 ft 18 kts 101°
2026-05-06 12:09 22.32777 113.90686 43 ft 7 kts 94°
2026-05-06 12:09 22.32791 113.90746 43 ft 9 kts 71°
2026-05-06 12:09 22.32819 113.90834 43 ft 15 kts 70°
2026-05-06 12:09 22.32859 113.90958 43 ft 19 kts 71°
2026-05-06 12:10 22.32908 113.91112 43 ft 23 kts 71°
2026-05-06 12:10 22.32962 113.91277 43 ft 22 kts 71°
2026-05-06 12:10 22.33013 113.91436 43 ft 22 kts 71°
2026-05-06 12:10 22.33063 113.91591 43 ft 21 kts 71°
2026-05-06 12:11 22.33096 113.91692 43 ft 7 kts 71°
2026-05-06 12:11 22.33113 113.91753 43 ft 9 kts 75°
2026-05-06 12:11 22.33133 113.91826 43 ft 10 kts 72°
2026-05-06 12:11 22.33157 113.91907 43 ft 11 kts 72°
2026-05-06 12:12 22.33184 113.91996 43 ft 12 kts 71°
2026-05-06 12:12 22.33203 113.92065 43 ft 4 kts 81°
2026-05-06 12:12 22.33192 113.92104 43 ft 6 kts 129°
2026-05-06 12:12 22.33148 113.92131 43 ft 8 kts 158°
2026-05-06 12:13 22.33087 113.92154 43 ft 10 kts 160°
2026-05-06 12:13 22.33001 113.92187 43 ft 15 kts 160°
2026-05-06 12:13 22.32893 113.92227 43 ft 17 kts 160°
2026-05-06 12:13 22.32771 113.92274 43 ft 19 kts 161°
2026-05-06 12:14 22.32638 113.92323 43 ft 20 kts 160°
2026-05-06 12:14 22.32499 113.92377 43 ft 21 kts 160°
2026-05-06 12:14 22.32361 113.92429 43 ft 15 kts 161°
2026-05-06 12:14 22.32280 113.92460 43 ft 10 kts 160°
2026-05-06 12:15 22.32240 113.92479 43 ft 5 kts 139°
2026-05-06 12:15 22.32236 113.92510 43 ft 5 kts 79°
2026-05-06 12:15 22.32251 113.92557 43 ft 7 kts 70°
2026-05-06 12:15 22.32271 113.92617 43 ft 9 kts 70°
2026-05-06 12:16 22.32295 113.92687 43 ft 10 kts 70°
2026-05-06 12:16 22.32305 113.92725 43 ft 2 kts 91°
2026-05-06 12:16 22.32290 113.92748 43 ft 5 kts 141°
2026-05-06 12:16 22.32253 113.92770 43 ft 7 kts 159°
2026-05-06 12:17 22.32197 113.92792 43 ft 10 kts 160°
2026-05-06 12:17 22.32117 113.92821 43 ft 13 kts 161°
2026-05-06 12:17 22.32019 113.92857 43 ft 15 kts 160°
2026-05-06 12:17 22.31911 113.92899 43 ft 14 kts 160°
2026-05-06 12:18 22.31856 113.92920 43 ft 4 kts 156°
2026-05-06 12:18 22.31837 113.92941 43 ft 4 kts 113°
2026-05-06 12:18 22.31842 113.92986 43 ft 6 kts 70°
2026-05-06 12:18 22.31861 113.93042 43 ft 8 kts 71°
2026-05-06 12:19 22.31874 113.93085 43 ft 2 kts 82°
2026-05-06 12:19 22.31868 113.93104 43 ft 3 kts 119°
2026-05-06 12:19 22.31856 113.93116 43 ft 3 kts 140°
2026-05-06 12:19 22.31836 113.93129 43 ft 4 kts 156°
2026-05-06 12:20 22.31806 113.93141 43 ft 6 kts 160°
2026-05-06 12:20 22.31759 113.93160 43 ft 8 kts 160°
2026-05-06 12:20 22.31702 113.93181 43 ft 6 kts 161°
2026-05-06 12:20 22.31666 113.93189 43 ft 7 kts 175°
2026-05-06 12:21 22.31643 113.93185 43 ft 4 kts 198°
2026-05-06 12:21 22.31626 113.93173 43 ft 4 kts 217°
2026-05-06 12:21 22.31608 113.93153 43 ft 6 kts 234°
2026-05-06 12:21 22.31594 113.93121 43 ft 3 kts 248°
2026-05-06 12:22 22.31585 113.93109 43 ft 3 kts 219°
2026-05-06 12:22 22.31565 113.93107 43 ft 4 kts 172°
2026-05-06 12:22 22.31555 113.93110 43 ft 0 kts 160°
2026-05-06 12:22 22.31548 113.93113 43 ft 2 kts 158°
2026-05-06 12:23 22.31529 113.93121 43 ft 3 kts 158°
2026-05-06 12:23 22.31521 113.93124 43 ft 1 kts 158°
2026-05-06 12:23 22.31513 113.93128 43 ft 1 kts 158°
2026-05-06 12:23 22.31507 113.93130 43 ft 0 kts 158°
2026-05-06 12:24 22.31503 113.93132 43 ft 1 kts 158°
2026-05-06 12:24 22.31500 113.93134 43 ft 0 kts 158°
2026-05-06 12:24 22.31497 113.93134 43 ft 0 kts 158°
2026-05-06 12:24 22.31495 113.93135 43 ft 0 kts 158°
2026-05-06 12:25 22.31494 113.93136 43 ft 0 kts 158°